sat.trackr.live / text

‹ back to catalog

STARLINK-4510

NORAD 53405 · 2022-097T

PAYLOAD ACTIVE UNKNOWN

§ Identity

Operator
Country
US
Launch date
2022-08-10
Launch site
AFETR
Launch vehicle
Mass (kg)
RCS (m²)

Purposes: comms

External: N2YO · Heavens-Above · Gunter

§ Orbital elements

Epoch: 2026-09-20T04:00:03.000096Z

Period
93.85 min
Inclination
53.1597°
Eccentricity
0.0001242
Mean motion
15.34373559 rev/d
Perigee alt
461.9 km
Apogee alt
463.6 km
Semi-major
6,840.9 km
B*
1.0912e-3
RAAN
322.9257°
Arg perigee
93.8163°
Mean anomaly
293.6677°
Rev number
588

§ Raw data

STARLINK-45101 53405U 22097T   26263.16670139  .00036641  00000+0  10912-2 0  99932 53405  53.1597 322.9257 0001242  93.8163 293.6677 15.34373559  5884

JSON: /api/v1/satellites/53405 · /tle

For live sub-satellite position, see the globe view (requires WebGL).

§ Visibility from observer

Set your observer location to see the next 7 days of passes ≥ 10°. The values pass through the URL so the page stays shareable.

No JS? Fill the form by hand. The geolocation button needs JavaScript.